Honolulu, HI

1:01 PM HST on August 19, 2017 (GMT -1000)
Honolulu International

Weather History for PHNL - June, 2014

Change the Weather History Date:

Thursday, June 12, 2014

  Actual Average Record
Temperature  
Mean Temperature 83 °F 80 °F  
Max Temperature 88 °F 87 °F 89 °F (1982)
Min Temperature 77 °F 73 °F 67 °F (1969)
Degree Days  
Heating Degree Days 0 0  
Month to date heating degree days 0 0  
Since 1 June heating degree days 0 0  
Since 1 July heating degree days 0 0  
Cooling Degree Days 18 15  
Month to date cooling degree days 188 177  
Year to date cooling degree days 1797 1679  
Since 1 June cooling degree days 188 177  
Growing Degree Days 32 (Base 50)    
Moisture  
Dew Point 64 °F    
Average Humidity 55    
Maximum Humidity 69    
Minimum Humidity 40    
Precipitation  
Precipitation 0.00 in 0.01 in 0.44 in (2008)
Month to date precipitation 0.04 0.12  
Year to date precipitation 10.01 7.69  
Snow  
Snow 0.00 in - - ()
Month to date snowfall 0.0  
Since 1 June snowfall 0.0  
Since 1 July snowfall 0.0  
Snow Depth 0.00 in    
Sea Level Pressure  
Sea Level Pressure 30.02 in    
Wind  
Wind Speed 13 mph (ENE)    
Max Wind Speed 23 mph    
Max Gust Speed 36 mph    
Visibility 10 miles    
Events      
T = Trace of Precipitation, MM = Missing Value Source: NWS Daily Summary

Daily Weather History Graph

Daily Weather History Graph

Search for Another Location

Airport or City:

Trip Planner

Search our weather history database for the weather conditions in past years. The results will help you decide how hot, cold, wet, or windy it might be!

Date:

Astronomy

Jun. 12, 2014 Rise Set
Actual Time 5:49 AM HST 7:14 PM HST
Civil Twilight 5:24 AM HST 7:38 PM HST
Nautical Twilight 4:54 AM HST 8:08 PM HST
Astronomical Twilight 4:24 AM HST 8:39 PM HST
Moon 7:06 PM HST (6/12) 5:31 AM HST (6/12)
Length of Visible Light 14h 14m
Length of Day
13h 25m
Full, 100% of the Moon is Illuminated
Jun 12
Full
Jun 12
Full
Jun 19
Last Quarter
Jun 26
New
Jul 5
First Quarter

Hourly Weather History & Observations

Time (HST) Temp. Heat Index Dew Point Humidity Pressure Visibility Wind Dir Wind Speed Gust Speed Precip Events Conditions
12:53 AM 79.0 °F - 66.0 °F 64% 30.03 in 10.0 mi ENE 11.5 mph - N/A   Mostly Cloudy
1:53 AM 78.1 °F - 66.0 °F 66% 30.02 in 10.0 mi ENE 10.4 mph - N/A   Mostly Cloudy
2:53 AM 78.1 °F - 64.9 °F 64% 30.01 in 10.0 mi ENE 11.5 mph - N/A   Mostly Cloudy
3:53 AM 77.0 °F - 66.0 °F 69% 30.00 in 10.0 mi NE 9.2 mph - N/A   Scattered Clouds
4:53 AM 77.0 °F - 66.0 °F 69% 30.00 in 10.0 mi NE 10.4 mph - N/A   Scattered Clouds
5:53 AM 78.1 °F - 66.9 °F 68% 30.01 in 10.0 mi ENE 11.5 mph - N/A   Scattered Clouds
6:53 AM 79.0 °F - 64.9 °F 62% 30.03 in 10.0 mi ENE 12.7 mph 21.9 mph N/A   Mostly Cloudy
7:53 AM 81.0 °F 82.5 °F 64.0 °F 56% 30.04 in 10.0 mi East 17.3 mph 20.7 mph N/A   Mostly Cloudy
8:53 AM 82.9 °F 84.6 °F 64.9 °F 54% 30.04 in 10.0 mi NE 12.7 mph 20.7 mph N/A   Mostly Cloudy
9:53 AM 84.0 °F 85.4 °F 64.0 °F 51% 30.04 in 10.0 mi ENE 13.8 mph - N/A   Mostly Cloudy
10:53 AM 84.9 °F 86.1 °F 64.0 °F 49% 30.04 in 10.0 mi ENE 16.1 mph 28.8 mph N/A   Mostly Cloudy
11:53 AM 84.9 °F 85.9 °F 63.0 °F 48% 30.03 in 10.0 mi East 15.0 mph 24.2 mph N/A   Mostly Cloudy
12:53 PM 87.1 °F 87.0 °F 61.0 °F 41% 30.01 in 10.0 mi East 15.0 mph - N/A   Mostly Cloudy
1:53 PM 84.9 °F 85.0 °F 61.0 °F 44% 30.00 in 10.0 mi ENE 15.0 mph 24.2 mph N/A   Mostly Cloudy
2:53 PM 86.0 °F 87.3 °F 64.0 °F 48% 29.99 in 10.0 mi NE 16.1 mph 24.2 mph N/A   Mostly Cloudy
3:53 PM 82.9 °F 84.0 °F 63.0 °F 51% 29.98 in 10.0 mi ENE 16.1 mph - N/A   Mostly Cloudy
4:53 PM 82.9 °F 84.0 °F 63.0 °F 51% 29.98 in 10.0 mi NE 13.8 mph 23.0 mph N/A   Mostly Cloudy
5:53 PM 82.0 °F 83.1 °F 63.0 °F 52% 29.98 in 10.0 mi ENE 16.1 mph - N/A   Mostly Cloudy
6:53 PM 80.1 °F 81.2 °F 62.1 °F 54% 30.00 in 10.0 mi ENE 16.1 mph 23.0 mph N/A   Mostly Cloudy
7:53 PM 79.0 °F - 64.9 °F 62% 30.02 in 10.0 mi ENE 12.7 mph - N/A   Mostly Cloudy
8:53 PM 79.0 °F - 64.9 °F 62% 30.04 in 9.0 mi ENE 11.5 mph - N/A   Mostly Cloudy
9:53 PM 78.1 °F - 66.0 °F 66% 30.05 in 10.0 mi ENE 10.4 mph - N/A   Mostly Cloudy
10:53 PM 78.1 °F - 64.9 °F 64% 30.06 in 10.0 mi ENE 11.5 mph - N/A   Mostly Cloudy
11:53 PM 78.1 °F - 66.0 °F 66% 30.05 in 10.0 mi ENE 9.2 mph - N/A   Scattered Clouds